AEROCUBE 12B (43557 NORAD) Tracking and Keplerian Element Data

This shows tracking and keplerian element data for the satellite.

Feedback or suggestion? Click here.




ElementValue
Catalog43557
NameAEROCUBE 12B
Epoch Orbit27696
Epoch Day176.1296717
Epoch Year2023
RAAN145.0081
Inclination51.6229
Eccentricity0.0005434
Argument of Perigee16.1407
Mean Anonmoly343.9765
Mean Motion15.7644628
Decay Rate0.00210321
L11 43557U 18046D 23176.12967170 .00210321 00000+0 12703-2 0 9998
L22 43557 51.6229 145.0081 0005434 16.1407 343.9765 15.76446280276965



Live tracking and technical data element details for AEROCUBE 12B (NORAD 43557). AEROCUBE 12B can be tracked NOW for your location showing map with azimuth and elevation plus other details from your city location.







IsCatalogInMostPopularTable: catalog: 43557, numindb: 686
Update: records affected: 1



GetName: 43557 AEROCUBE 12B

Hit Count: updated at: Mon, 17 Jun 2024 22:48:40 GMT